C/2024 X1 ( Fazekas )

Japanese version
Home page
Updated on January 10, 2025

---------------------------------------------------------------------

* Profile

Discovery Date December 11, 2024
Magnitude 19.3 mag
Discoverer Jacqueline B. Fazekas (Mt. Lemmon Survey)

* Pictures

* Orbital Elements

Epoch 2024 Oct. 17.0 TT = JDT 2460600.5                                         
T 2025 July 31.50242 TT                                 Veres                   
q   3.8127622            (2000.0)            P               Q                  
n   0.03324147     Peri.  123.06308     -0.43937419     -0.89819836             
a   9.5796402      Node   352.95932     +0.78213667     -0.37496201             
e   0.6019932      Incl.    6.45744     +0.44182865     -0.22944107             
P  29.6                                                                         
From Y20 41 observations 2024 Dec. 11-19, mean residual 0".4.                   

* Magnitudes Graph

        m1 = 11.0 + 5 log d + 10.0 log r

---------------------------------------------------------------------

The orbital elements are published on M.P.E.C. 2024-Y20.
The magnitudes graphs are made with Comet for Windows.

---------------------------------------------------------------------

Copyright(C) Seiichi Yoshida (comet@aerith.net). All rights reserved.